ETH955A FOOL-HAAB

Flight info

Callsign ETH955A
Flight time N/A
Altitude 35000
Route ONKAR1S ONKAR UG625 MPK UT139 GOPUR/N0495F370 UT139 ASKON L558 DASTU UT139 BRO BRO1A
Aircraft A35K/H-SDE2E3GHIJ3J4J5LM1ORWXY/LB1D1

Departure

Time 2026-04-22 10:25
Airport Libreville Leon M'ba International Airport (FOOL)

Arrival

Time N/A
Airport Addis Ababa Bole International Airport (HAAB)
Time Latitude Longitude Altitude Speed Heading
2026-04-22 09:57 0.45593 9.41138 43 ft 0 kts 16°
2026-04-22 10:17 0.45594 9.41138 43 ft 0 kts 16°
2026-04-22 10:18 0.45600 9.41141 43 ft 2 kts 19°
2026-04-22 10:18 0.45606 9.41143 43 ft 0 kts 19°
2026-04-22 10:18 0.45618 9.41147 43 ft 11 kts 19°
2026-04-22 10:19 0.45712 9.41165 43 ft 14 kts 354°
2026-04-22 10:19 0.45791 9.41170 43 ft 10 kts 28°
2026-04-22 10:19 0.45854 9.41204 42 ft 11 kts 23°
2026-04-22 10:19 0.45928 9.41195 42 ft 12 kts 338°
2026-04-22 10:20 0.46006 9.41161 42 ft 13 kts 335°
2026-04-22 10:20 0.46088 9.41123 43 ft 13 kts 334°
2026-04-22 10:20 0.46171 9.41082 44 ft 13 kts 334°
2026-04-22 10:20 0.46257 9.41040 44 ft 14 kts 334°
2026-04-22 10:21 0.46351 9.40996 44 ft 15 kts 336°
2026-04-22 10:21 0.46448 9.40954 45 ft 15 kts 336°
2026-04-22 10:21 0.46545 9.40908 46 ft 16 kts 334°
2026-04-22 10:21 0.46648 9.40855 45 ft 17 kts 333°
2026-04-22 10:22 0.46758 9.40800 45 ft 18 kts 334°
2026-04-22 10:22 0.46873 9.40743 45 ft 19 kts 333°
2026-04-22 10:22 0.46984 9.40669 43 ft 19 kts 303°
2026-04-22 10:22 0.47030 9.40640 43 ft 1 kts 53°
2026-04-22 10:23 0.47030 9.40646 43 ft 0 kts 83°
2026-04-22 10:23 0.47029 9.40648 43 ft 0 kts 95°
2026-04-22 10:23 0.47009 9.40673 43 ft 8 kts 138°
2026-04-22 10:23 0.46985 9.40688 43 ft 0 kts 153°
2026-04-22 10:24 0.46916 9.40724 44 ft 40 kts 153°
2026-04-22 10:25 0.46450 9.40943 46 ft 106 kts 154°
2026-04-22 10:25 0.45607 9.41348 53 ft 160 kts 157°
2026-04-22 10:25 0.44586 9.41784 686 ft 161 kts 162°
2026-04-22 10:25 0.43461 9.42007 1201 ft 164 kts 159°
2026-04-22 10:26 0.42845 9.42769 1840 ft 138 kts 96°
2026-04-22 10:26 0.43045 9.43811 1645 ft 174 kts 66°
2026-04-22 10:26 0.43873 9.44871 1374 ft 212 kts 38°
2026-04-22 10:26 0.44973 9.45781 1736 ft 218 kts 46°
2026-04-22 10:27 0.46008 9.47042 1227 ft 268 kts 56°
2026-04-22 10:27 0.46949 9.48846 1273 ft 259 kts 73°
2026-04-22 10:27 0.47321 9.50443 3154 ft 230 kts 81°
2026-04-22 10:27 0.47490 9.52188 2768 ft 276 kts 86°
2026-04-22 10:28 0.47681 9.54235 2523 ft 311 kts 79°
2026-04-22 10:28 0.48402 9.56277 2939 ft 318 kts 64°
2026-04-22 10:28 0.49427 9.58182 3888 ft 304 kts 60°
2026-04-22 10:28 0.50451 9.59981 4850 ft 293 kts 61°
2026-04-22 10:29 0.51390 9.61743 5737 ft 282 kts 64°
2026-04-22 10:29 0.52232 9.63485 6520 ft 276 kts 66°
2026-04-22 10:29 0.53000 9.65235 7144 ft 274 kts 68°
2026-04-22 10:29 0.53722 9.66998 7717 ft 275 kts 69°
2026-04-22 10:30 0.54419 9.68775 8290 ft 275 kts 69°
2026-04-22 10:30 0.55111 9.70566 8849 ft 276 kts 69°
2026-04-22 10:30 0.55802 9.72357 9447 ft 277 kts 69°
2026-04-22 10:30 0.56500 9.74159 9993 ft 279 kts 69°
2026-04-22 10:31 0.57215 9.75999 10278 ft 290 kts 69°
2026-04-22 10:31 0.57963 9.77916 10512 ft 303 kts 69°
2026-04-22 10:31 0.58745 9.79913 10765 ft 315 kts 69°
2026-04-22 10:31 0.59558 9.81985 11019 ft 326 kts 69°
2026-04-22 10:32 0.60402 9.84132 11262 ft 337 kts 69°
2026-04-22 10:32 0.61275 9.86347 11499 ft 347 kts 69°
2026-04-22 10:32 0.62168 9.88607 11860 ft 352 kts 69°
2026-04-22 10:32 0.63070 9.90894 12290 ft 355 kts 69°
2026-04-22 10:33 0.63978 9.93201 12714 ft 358 kts 69°
2026-04-22 10:33 0.64892 9.95524 13154 ft 360 kts 69°
2026-04-22 10:33 0.65809 9.97859 13596 ft 362 kts 70°
2026-04-22 10:33 0.66717 10.00217 13987 ft 365 kts 72°
2026-04-22 10:34 0.67450 10.02648 14346 ft 367 kts 76°
2026-04-22 10:34 0.68113 10.05120 14712 ft 370 kts 75°
2026-04-22 10:34 0.68830 10.07594 15080 ft 372 kts 74°
2026-04-22 10:34 0.69639 10.10069 15427 ft 376 kts 72°
2026-04-22 10:35 0.70530 10.12529 15834 ft 377 kts 71°
2026-04-22 10:35 0.71478 10.14984 16201 ft 380 kts 70°
2026-04-22 10:35 0.72462 10.17450 16558 ft 383 kts 69°
2026-04-22 10:35 0.73464 10.19924 16945 ft 385 kts 69°
2026-04-22 10:36 0.74474 10.22413 17306 ft 388 kts 69°
2026-04-22 10:36 0.75487 10.24920 17666 ft 391 kts 69°
2026-04-22 10:36 0.76503 10.27447 18022 ft 393 kts 70°
2026-04-22 10:36 0.77523 10.29991 18334 ft 396 kts 70°
2026-04-22 10:37 0.78548 10.32556 18643 ft 398 kts 70°
2026-04-22 10:37 0.80612 10.37726 19240 ft 403 kts 70°
2026-04-22 10:37 0.81650 10.40327 19535 ft 405 kts 70°
2026-04-22 10:38 0.82681 10.42912 19818 ft 407 kts 69°
2026-04-22 10:38 0.83733 10.45544 20114 ft 409 kts 69°
2026-04-22 10:38 0.84789 10.48191 20398 ft 411 kts 69°
2026-04-22 10:38 0.85851 10.50851 20686 ft 413 kts 69°
2026-04-22 10:39 0.86919 10.53525 20964 ft 415 kts 69°
2026-04-22 10:39 0.87993 10.56215 21223 ft 418 kts 69°
2026-04-22 10:39 0.89071 10.58914 21481 ft 420 kts 69°
2026-04-22 10:39 0.90157 10.61635 21752 ft 422 kts 69°
2026-04-22 10:40 0.91246 10.64363 22012 ft 424 kts 69°
2026-04-22 10:40 0.92343 10.67110 22259 ft 426 kts 69°
2026-04-22 10:40 0.93444 10.69866 22529 ft 428 kts 69°
2026-04-22 10:40 0.94549 10.72633 22781 ft 431 kts 69°
2026-04-22 10:41 0.95662 10.75421 23035 ft 433 kts 69°
2026-04-22 10:41 0.96780 10.78220 23281 ft 435 kts 69°
2026-04-22 10:41 0.97902 10.81032 23518 ft 437 kts 69°
2026-04-22 10:41 0.99030 10.83857 23719 ft 439 kts 69°
2026-04-22 10:42 1.00161 10.86690 23926 ft 440 kts 69°
2026-04-22 10:42 1.01295 10.89534 24145 ft 441 kts 69°
2026-04-22 10:42 1.02435 10.92389 24361 ft 443 kts 69°
2026-04-22 10:42 1.03578 10.95250 24569 ft 444 kts 69°
2026-04-22 10:43 1.04724 10.98119 24767 ft 446 kts 69°
2026-04-22 10:43 1.05873 11.00999 24987 ft 447 kts 69°
2026-04-22 10:43 1.07027 11.03889 25184 ft 448 kts 69°
2026-04-22 10:43 1.08184 11.06788 25392 ft 450 kts 69°
2026-04-22 10:44 1.09344 11.09694 25614 ft 451 kts 69°
2026-04-22 10:44 1.10507 11.12609 25811 ft 452 kts 69°
2026-04-22 10:44 1.11673 11.15530 26015 ft 454 kts 69°
2026-04-22 10:44 1.12842 11.18461 26228 ft 455 kts 69°
2026-04-22 10:45 1.14014 11.21399 26425 ft 456 kts 68°
2026-04-22 10:45 1.15192 11.24350 26599 ft 458 kts 68°
2026-04-22 10:45 1.16371 11.27303 26879 ft 457 kts 68°
2026-04-22 10:45 1.17546 11.30248 27216 ft 455 kts 68°
2026-04-22 10:46 1.18710 11.33172 27610 ft 451 kts 68°
2026-04-22 10:46 1.19864 11.36071 28045 ft 447 kts 67°
2026-04-22 10:46 1.21016 11.38966 28258 ft 450 kts 67°
2026-04-22 10:46 1.22179 11.41883 28369 ft 454 kts 67°
2026-04-22 10:47 1.23355 11.44827 28468 ft 458 kts 67°
2026-04-22 10:47 1.24541 11.47794 28586 ft 462 kts 66°
2026-04-22 10:47 1.25738 11.50787 28680 ft 466 kts 66°
2026-04-22 10:47 1.26945 11.53805 28789 ft 470 kts 67°
2026-04-22 10:48 1.28130 11.56862 28908 ft 473 kts 68°
2026-04-22 10:48 1.29273 11.59951 29078 ft 475 kts 68°
2026-04-22 10:48 1.30403 11.63064 29271 ft 477 kts 68°
2026-04-22 10:48 1.31532 11.66184 29467 ft 479 kts 68°
2026-04-22 10:49 1.32671 11.69316 29654 ft 480 kts 68°
2026-04-22 10:49 1.33818 11.72456 29853 ft 482 kts 68°
2026-04-22 10:49 1.34974 11.75603 30043 ft 483 kts 68°
2026-04-22 10:49 1.36120 11.78716 30197 ft 484 kts 68°
2026-04-22 10:50 1.37303 11.81924 30365 ft 486 kts 68°
2026-04-22 10:50 1.38473 11.85094 30519 ft 487 kts 68°
2026-04-22 10:50 1.39650 11.88279 30675 ft 489 kts 68°
2026-04-22 10:50 1.40812 11.91428 30825 ft 490 kts 68°
2026-04-22 10:51 1.42008 11.94670 30996 ft 492 kts 68°
2026-04-22 10:51 1.43178 11.97840 31154 ft 493 kts 68°
2026-04-22 10:51 1.44367 12.01062 31314 ft 495 kts 68°
2026-04-22 10:51 1.45557 12.04287 31465 ft 496 kts 68°
2026-04-22 10:52 1.46751 12.07526 31608 ft 497 kts 68°
2026-04-22 10:52 1.47949 12.10772 31771 ft 498 kts 69°
2026-04-22 10:52 1.49150 12.14027 31909 ft 500 kts 69°
2026-04-22 10:52 1.50353 12.17288 32058 ft 501 kts 69°
2026-04-22 10:53 1.51556 12.20550 32275 ft 500 kts 69°
2026-04-22 10:53 1.52756 12.23805 32519 ft 499 kts 69°
2026-04-22 10:53 1.53956 12.27057 32743 ft 498 kts 69°
2026-04-22 10:53 1.55155 12.30308 32975 ft 498 kts 69°
2026-04-22 10:54 1.56349 12.33547 33221 ft 497 kts 69°
2026-04-22 10:54 1.57543 12.36785 33475 ft 496 kts 69°
2026-04-22 10:54 1.58731 12.40008 33743 ft 494 kts 70°
2026-04-22 10:54 1.59919 12.43232 33998 ft 493 kts 70°
2026-04-22 10:55 1.61102 12.46442 34228 ft 492 kts 70°
2026-04-22 10:55 1.62283 12.49645 34462 ft 491 kts 70°
2026-04-22 10:55 1.63463 12.52849 34703 ft 490 kts 70°
2026-04-22 10:55 1.64638 12.56041 34875 ft 490 kts 70°
2026-04-22 10:56 1.65820 12.59251 34915 ft 494 kts 70°
2026-04-22 10:56 1.68200 12.65706 34928 ft 496 kts 70°
2026-04-22 10:57 1.70584 12.72168 34916 ft 496 kts 69°
2026-04-22 10:57 1.72957 12.78605 34913 ft 497 kts 69°
2026-04-22 10:58 1.75345 12.85084 34914 ft 497 kts 69°
2026-04-22 10:58 1.77736 12.91572 34920 ft 498 kts 69°
2026-04-22 10:59 1.80131 12.98070 34912 ft 498 kts 69°
2026-04-22 10:59 1.82524 13.04565 34909 ft 498 kts 69°
2026-04-22 11:00 1.84918 13.11063 34911 ft 498 kts 69°
2026-04-22 11:00 1.87314 13.17565 34917 ft 498 kts 69°
2026-04-22 11:01 1.89708 13.24067 34908 ft 499 kts 69°
2026-04-22 11:01 1.92103 13.30570 34910 ft 499 kts 69°
2026-04-22 11:02 1.94499 13.37075 34911 ft 498 kts 69°
2026-04-22 11:02 1.96894 13.43581 34905 ft 498 kts 69°
2026-04-22 11:03 1.99287 13.50079 34906 ft 499 kts 69°
2026-04-22 11:03 2.01278 13.55490 34914 ft 499 kts 69°
2026-04-22 11:04 2.03672 13.61995 34908 ft 499 kts 69°
2026-04-22 11:04 2.06068 13.68509 34906 ft 499 kts 69°
2026-04-22 11:05 2.08463 13.75018 34905 ft 499 kts 69°
2026-04-22 11:05 2.11245 13.82580 34910 ft 499 kts 69°
2026-04-22 11:06 2.13250 13.88032 34907 ft 499 kts 69°
2026-04-22 11:06 2.15642 13.94539 34906 ft 498 kts 69°
2026-04-22 11:07 2.18034 14.01044 34901 ft 498 kts 69°
2026-04-22 11:07 2.20424 14.07542 34900 ft 498 kts 69°
2026-04-22 11:08 2.22816 14.14050 34899 ft 498 kts 69°
2026-04-22 11:08 2.25205 14.20549 34891 ft 498 kts 69°
2026-04-22 11:09 2.27580 14.27014 34891 ft 499 kts 69°
2026-04-22 11:09 2.29989 14.33575 34892 ft 499 kts 69°
2026-04-22 11:10 2.32366 14.40043 34890 ft 500 kts 69°
2026-04-22 11:10 2.34764 14.46570 34886 ft 500 kts 69°
2026-04-22 11:11 2.37162 14.53097 34886 ft 500 kts 69°
2026-04-22 11:11 2.39560 14.59628 34879 ft 500 kts 69°
2026-04-22 11:12 2.41960 14.66164 34877 ft 500 kts 69°
2026-04-22 11:12 2.44354 14.72688 34877 ft 500 kts 69°
2026-04-22 11:13 2.46750 14.79217 34874 ft 500 kts 68°
2026-04-22 11:13 2.49144 14.85739 34875 ft 500 kts 68°
2026-04-22 11:14 2.51536 14.92258 34868 ft 500 kts 68°
2026-04-22 11:14 2.53929 14.98781 34855 ft 499 kts 68°
2026-04-22 11:15 2.56322 15.05306 34854 ft 499 kts 68°
2026-04-22 11:15 2.58712 15.11822 34857 ft 499 kts 68°
2026-04-22 11:16 2.61104 15.18346 34858 ft 500 kts 68°
2026-04-22 11:16 2.63480 15.24827 34853 ft 500 kts 68°
2026-04-22 11:17 2.65887 15.31392 34845 ft 500 kts 69°
2026-04-22 11:17 2.68264 15.37880 34854 ft 500 kts 68°
2026-04-22 11:18 2.70655 15.44406 34851 ft 500 kts 68°
2026-04-22 11:18 2.73047 15.50937 34855 ft 500 kts 68°
2026-04-22 11:19 2.75441 15.57471 34851 ft 500 kts 68°
2026-04-22 11:19 2.77832 15.64002 34850 ft 500 kts 68°
2026-04-22 11:20 2.80269 15.70515 34848 ft 499 kts 64°
2026-04-22 11:20 2.83448 15.76678 34852 ft 498 kts 59°
2026-04-22 11:21 2.86821 15.82728 34843 ft 498 kts 59°
2026-04-22 11:21 2.90229 15.88759 34845 ft 498 kts 59°
2026-04-22 11:22 2.93624 15.94786 34843 ft 497 kts 59°
2026-04-22 11:22 2.97011 16.00823 34842 ft 497 kts 59°
2026-04-22 11:23 3.00393 16.06858 34842 ft 497 kts 59°
2026-04-22 11:23 3.03774 16.12894 34838 ft 497 kts 59°
2026-04-22 11:24 3.07157 16.18933 34842 ft 497 kts 59°
2026-04-22 11:24 3.10537 16.24968 34843 ft 497 kts 59°
2026-04-22 11:25 3.13915 16.30999 34841 ft 497 kts 59°
2026-04-22 11:25 3.17293 16.37031 34843 ft 497 kts 59°
2026-04-22 11:26 3.20673 16.43066 34843 ft 497 kts 59°
2026-04-22 11:26 3.24054 16.49107 34845 ft 497 kts 59°
2026-04-22 11:27 3.27433 16.55144 34841 ft 497 kts 59°
2026-04-22 11:27 3.30813 16.61184 34842 ft 497 kts 59°
2026-04-22 11:28 3.34189 16.67219 34842 ft 497 kts 59°
2026-04-22 11:28 3.37511 16.73159 34841 ft 497 kts 59°
2026-04-22 11:29 3.40866 16.79159 34841 ft 497 kts 59°
2026-04-22 11:29 3.44244 16.85200 34843 ft 497 kts 59°
2026-04-22 11:30 3.47623 16.91242 34844 ft 497 kts 59°
2026-04-22 11:30 3.50997 16.97278 34844 ft 497 kts 59°
2026-04-22 11:31 3.54373 17.03318 34840 ft 497 kts 59°
2026-04-22 11:31 3.57747 17.09358 34838 ft 497 kts 59°
2026-04-22 11:32 3.61119 17.15395 34840 ft 497 kts 59°
2026-04-22 11:32 3.64487 17.21425 34841 ft 497 kts 59°
2026-04-22 11:33 3.67860 17.27464 34840 ft 497 kts 59°
2026-04-22 11:33 3.71231 17.33504 34840 ft 497 kts 59°
2026-04-22 11:34 3.74605 17.39535 34842 ft 496 kts 59°
2026-04-22 11:34 3.77984 17.45560 34835 ft 496 kts 59°
2026-04-22 11:35 3.81362 17.51589 34841 ft 496 kts 59°
2026-04-22 11:35 3.84740 17.57621 34838 ft 496 kts 59°
2026-04-22 11:36 3.88114 17.63650 34840 ft 496 kts 59°
2026-04-22 11:36 3.91487 17.69680 34838 ft 496 kts 59°
2026-04-22 11:37 3.94861 17.75710 34836 ft 496 kts 59°
2026-04-22 11:37 3.98235 17.81743 34839 ft 497 kts 59°
2026-04-22 11:38 4.01612 17.87783 34836 ft 497 kts 59°
2026-04-22 11:38 4.06680 17.96848 34834 ft 497 kts 59°
2026-04-22 11:39 4.10058 18.02893 34835 ft 498 kts 59°
2026-04-22 11:39 4.13440 18.08947 34837 ft 498 kts 59°
2026-04-22 11:40 4.16823 18.15002 34837 ft 498 kts 59°
2026-04-22 11:40 4.20207 18.21060 34840 ft 498 kts 59°
2026-04-22 11:41 4.23590 18.27120 34845 ft 498 kts 59°
2026-04-22 11:41 4.26949 18.33138 34850 ft 498 kts 59°
2026-04-22 11:42 4.30334 18.39205 34853 ft 499 kts 59°
2026-04-22 11:42 4.33715 18.45267 34855 ft 499 kts 59°
2026-04-22 11:43 4.37006 18.51392 34858 ft 500 kts 64°
2026-04-22 11:43 4.39145 18.58037 34854 ft 503 kts 73°
2026-04-22 11:44 4.40819 18.64844 34854 ft 504 kts 75°
2026-04-22 11:44 4.42424 18.71679 34857 ft 504 kts 75°
2026-04-22 11:45 4.44050 18.78516 34854 ft 504 kts 75°
2026-04-22 11:45 4.45721 18.85336 34852 ft 504 kts 75°
2026-04-22 11:46 4.47433 18.92150 34853 ft 504 kts 75°
2026-04-22 11:46 4.49141 18.98966 34850 ft 504 kts 75°
2026-04-22 11:47 4.50840 19.05782 34841 ft 504 kts 75°
2026-04-22 11:47 4.52525 19.12557 34843 ft 504 kts 75°
2026-04-22 11:48 4.54220 19.19378 34843 ft 505 kts 75°
2026-04-22 11:48 4.55915 19.26198 34842 ft 505 kts 75°
2026-04-22 11:49 4.57611 19.33026 34842 ft 505 kts 75°
2026-04-22 11:49 4.59304 19.39846 34841 ft 505 kts 75°
2026-04-22 11:50 4.60998 19.46670 34846 ft 504 kts 75°
2026-04-22 11:50 4.62691 19.53497 34843 ft 504 kts 75°
2026-04-22 11:51 4.64382 19.60318 34835 ft 504 kts 75°
2026-04-22 11:51 4.66074 19.67144 34838 ft 504 kts 75°
2026-04-22 11:52 4.67764 19.73963 34835 ft 504 kts 75°
2026-04-22 11:52 4.69452 19.80781 34826 ft 504 kts 75°
2026-04-22 11:53 4.70854 19.86447 34828 ft 504 kts 75°
2026-04-22 11:53 4.72540 19.93260 34828 ft 504 kts 75°
2026-04-22 11:54 4.74225 20.00070 34827 ft 503 kts 75°
2026-04-22 11:54 4.75910 20.06885 34827 ft 503 kts 75°
2026-04-22 11:55 4.77593 20.13692 34830 ft 503 kts 75°
2026-04-22 11:55 4.79275 20.20505 34819 ft 503 kts 75°
2026-04-22 11:56 4.80955 20.27307 34823 ft 503 kts 75°
2026-04-22 11:56 4.82635 20.34115 34820 ft 503 kts 75°
2026-04-22 11:57 4.84315 20.40922 34825 ft 503 kts 75°
2026-04-22 11:57 4.85994 20.47730 34823 ft 503 kts 75°
2026-04-22 11:58 4.87671 20.54537 34822 ft 503 kts 75°
2026-04-22 11:58 4.89350 20.61350 34819 ft 503 kts 75°
2026-04-22 11:59 4.91027 20.68160 34822 ft 503 kts 75°
2026-04-22 11:59 4.92706 20.74982 34815 ft 504 kts 75°
2026-04-22 12:00 4.94384 20.81801 34816 ft 504 kts 75°
2026-04-22 12:00 4.96062 20.88623 34808 ft 504 kts 75°
2026-04-22 12:01 4.97740 20.95445 34806 ft 504 kts 75°
2026-04-22 12:01 4.99416 21.02268 34805 ft 504 kts 75°
2026-04-22 12:02 5.01092 21.09094 34802 ft 504 kts 75°
2026-04-22 12:02 5.02768 21.15924 34798 ft 504 kts 75°
2026-04-22 12:03 5.04443 21.22750 34798 ft 504 kts 75°
2026-04-22 12:03 5.06104 21.29523 34799 ft 503 kts 75°
2026-04-22 12:04 5.07774 21.36336 34800 ft 503 kts 75°
2026-04-22 12:04 5.09445 21.43152 34801 ft 503 kts 75°
2026-04-22 12:05 5.11112 21.49957 34807 ft 502 kts 75°
2026-04-22 12:05 5.12777 21.56759 34798 ft 502 kts 75°
2026-04-22 12:06 5.14440 21.63555 34798 ft 502 kts 75°
2026-04-22 12:06 5.16101 21.70349 34797 ft 501 kts 75°
2026-04-22 12:07 5.17761 21.77138 34795 ft 501 kts 75°
2026-04-22 12:07 5.19419 21.83921 34796 ft 501 kts 75°
2026-04-22 12:08 5.21075 21.90705 34795 ft 501 kts 75°
2026-04-22 12:08 5.22732 21.97492 34794 ft 501 kts 75°
2026-04-22 12:09 5.24388 22.04276 34794 ft 501 kts 75°
2026-04-22 12:09 5.26044 22.11070 34794 ft 501 kts 75°
2026-04-22 12:10 5.27687 22.17810 34792 ft 501 kts 75°
2026-04-22 12:10 5.29343 22.24605 34793 ft 501 kts 75°
2026-04-22 12:11 5.30998 22.31403 34794 ft 501 kts 75°
2026-04-22 12:11 5.32651 22.38195 34795 ft 501 kts 75°
2026-04-22 12:12 5.34304 22.44987 34792 ft 501 kts 75°
2026-04-22 12:12 5.35957 22.51785 34793 ft 501 kts 75°
2026-04-22 12:13 5.37608 22.58579 34794 ft 501 kts 75°
2026-04-22 12:13 5.39254 22.65352 34794 ft 501 kts 75°
2026-04-22 12:14 5.40910 22.72178 34797 ft 502 kts 76°
2026-04-22 12:14 5.42561 22.78985 34795 ft 502 kts 76°
2026-04-22 12:15 5.44210 22.85787 34794 ft 502 kts 75°
2026-04-22 12:15 5.45860 22.92590 34794 ft 502 kts 76°
2026-04-22 12:16 5.47511 22.99396 34797 ft 501 kts 76°
2026-04-22 12:16 5.49156 23.06189 34795 ft 500 kts 76°
2026-04-22 12:17 5.50796 23.12967 34791 ft 500 kts 76°
2026-04-22 12:17 5.52425 23.19698 34791 ft 499 kts 76°
2026-04-22 12:18 5.54059 23.26456 34789 ft 498 kts 76°
2026-04-22 12:18 5.55692 23.33221 34791 ft 498 kts 76°
2026-04-22 12:19 5.57323 23.39979 34790 ft 498 kts 76°
2026-04-22 12:19 5.58954 23.46736 34790 ft 498 kts 76°
2026-04-22 12:20 5.60586 23.53498 34788 ft 498 kts 76°
2026-04-22 12:20 5.62215 23.60255 34790 ft 498 kts 76°
2026-04-22 12:21 5.63842 23.67005 34786 ft 498 kts 76°
2026-04-22 12:21 5.65468 23.73760 34788 ft 498 kts 76°
2026-04-22 12:22 5.67096 23.80518 34786 ft 498 kts 76°
2026-04-22 12:22 5.68721 23.87276 34786 ft 498 kts 76°
2026-04-22 12:23 5.70349 23.94046 34784 ft 499 kts 76°
2026-04-22 12:23 5.71976 24.00816 34784 ft 499 kts 76°
2026-04-22 12:24 5.73604 24.07591 34781 ft 499 kts 76°
2026-04-22 12:24 5.75232 24.14371 34779 ft 499 kts 77°
2026-04-22 12:25 5.76856 24.21147 34782 ft 500 kts 77°
2026-04-22 12:25 5.78482 24.27930 34782 ft 499 kts 77°
2026-04-22 12:26 5.80108 24.34712 34780 ft 499 kts 77°
2026-04-22 12:26 5.81722 24.41446 34785 ft 499 kts 76°
2026-04-22 12:27 5.83347 24.48234 34784 ft 499 kts 77°
2026-04-22 12:27 5.84969 24.55015 34787 ft 500 kts 77°
2026-04-22 12:28 5.86591 24.61801 34785 ft 500 kts 77°
2026-04-22 12:28 5.88215 24.68600 34788 ft 501 kts 77°
2026-04-22 12:29 5.89841 24.75405 34785 ft 501 kts 77°
2026-04-22 12:29 5.91466 24.82215 34788 ft 502 kts 77°
2026-04-22 12:30 5.93910 24.92459 34788 ft 503 kts 77°
2026-04-22 12:31 5.95539 24.99291 34796 ft 503 kts 77°
2026-04-22 12:31 5.97170 25.06137 34793 ft 504 kts 77°
2026-04-22 12:32 5.98800 25.12981 34791 ft 504 kts 77°
2026-04-22 12:32 6.01243 25.23249 34794 ft 504 kts 77°
2026-04-22 12:33 6.02876 25.30105 34796 ft 504 kts 77°
2026-04-22 12:33 6.04504 25.36953 34795 ft 504 kts 77°
2026-04-22 12:34 6.06131 25.43811 34797 ft 504 kts 77°
2026-04-22 12:34 6.07747 25.50623 34796 ft 505 kts 77°
2026-04-22 12:35 6.09373 25.57481 34798 ft 505 kts 77°
2026-04-22 12:35 6.11001 25.64349 34798 ft 505 kts 77°
2026-04-22 12:36 6.12628 25.71215 34797 ft 505 kts 77°
2026-04-22 12:36 6.14256 25.78090 34797 ft 505 kts 77°
2026-04-22 12:37 6.15882 25.84958 34795 ft 505 kts 77°
2026-04-22 12:37 6.17507 25.91830 34794 ft 506 kts 77°
2026-04-22 12:38 6.19133 25.98709 34791 ft 506 kts 77°
2026-04-22 12:38 6.20759 26.05594 34795 ft 507 kts 77°
2026-04-22 12:39 6.23200 26.15934 34790 ft 507 kts 77°
2026-04-22 12:40 6.24827 26.22833 34790 ft 507 kts 77°
2026-04-22 12:40 6.26455 26.29741 34786 ft 508 kts 77°
2026-04-22 12:41 6.28071 26.36603 34784 ft 508 kts 77°
2026-04-22 12:41 6.29697 26.43513 34782 ft 508 kts 77°
2026-04-22 12:42 6.31059 26.49301 34781 ft 508 kts 77°
2026-04-22 12:42 6.32949 26.57341 34779 ft 508 kts 77°
2026-04-22 12:43 6.34300 26.63091 34776 ft 508 kts 77°
2026-04-22 12:43 6.35925 26.70011 34775 ft 509 kts 77°
2026-04-22 12:44 6.37548 26.76930 34772 ft 509 kts 77°
2026-04-22 12:44 6.39174 26.83862 34767 ft 509 kts 77°
2026-04-22 12:45 6.40809 26.90841 34764 ft 510 kts 77°
2026-04-22 12:45 6.42435 26.97783 34764 ft 510 kts 77°
2026-04-22 12:46 6.44060 27.04725 34765 ft 510 kts 77°
2026-04-22 12:46 6.45683 27.11667 34761 ft 510 kts 77°
2026-04-22 12:47 6.47307 27.18615 34760 ft 510 kts 77°
2026-04-22 12:47 6.48929 27.25559 34761 ft 510 kts 77°
2026-04-22 12:48 6.50551 27.32505 34762 ft 510 kts 77°
2026-04-22 12:48 6.52173 27.39452 34758 ft 510 kts 77°
2026-04-22 12:49 6.53783 27.46358 34760 ft 511 kts 77°
2026-04-22 12:49 6.55403 27.53312 34755 ft 511 kts 77°
2026-04-22 12:50 6.57022 27.60267 34753 ft 511 kts 77°
2026-04-22 12:50 6.58643 27.67229 34755 ft 511 kts 77°
2026-04-22 12:51 6.60260 27.74189 34752 ft 511 kts 77°
2026-04-22 12:51 6.61879 27.81159 34750 ft 512 kts 77°
2026-04-22 12:52 6.63498 27.88121 34753 ft 511 kts 77°
2026-04-22 12:52 6.65115 27.95085 34750 ft 511 kts 77°
2026-04-22 12:53 6.66731 28.02056 34751 ft 511 kts 77°
2026-04-22 12:53 6.68342 28.09016 34750 ft 511 kts 76°
2026-04-22 12:54 6.69956 28.15981 34747 ft 511 kts 76°
2026-04-22 12:54 6.71569 28.22953 34747 ft 512 kts 77°
2026-04-22 12:55 6.73171 28.29883 34748 ft 512 kts 76°
2026-04-22 12:55 6.74787 28.36870 34746 ft 513 kts 77°
2026-04-22 12:56 6.76399 28.43851 34749 ft 513 kts 77°
2026-04-22 12:56 6.78013 28.50849 34755 ft 514 kts 77°
2026-04-22 12:57 6.79630 28.57863 34757 ft 514 kts 76°
2026-04-22 12:57 6.81246 28.64872 34761 ft 515 kts 76°
2026-04-22 12:58 6.82864 28.71898 34764 ft 516 kts 76°
2026-04-22 12:58 6.84485 28.78937 34765 ft 516 kts 76°
2026-04-22 12:59 6.86105 28.85974 34765 ft 516 kts 76°
2026-04-22 12:59 6.87721 28.93010 34770 ft 516 kts 76°
2026-04-22 13:00 6.89338 29.00045 34767 ft 516 kts 76°
2026-04-22 13:00 6.90950 29.07070 34766 ft 515 kts 76°
2026-04-22 13:01 6.92561 29.14099 34765 ft 515 kts 76°
2026-04-22 13:01 6.94170 29.21121 34762 ft 515 kts 76°
2026-04-22 13:02 6.95779 29.28140 34763 ft 515 kts 76°
2026-04-22 13:02 6.97385 29.35161 34764 ft 514 kts 76°
2026-04-22 13:03 6.98990 29.42178 34761 ft 514 kts 76°
2026-04-22 13:03 7.00593 29.49191 34761 ft 514 kts 76°
2026-04-22 13:04 7.02195 29.56208 34758 ft 514 kts 76°
2026-04-22 13:04 7.03784 29.63170 34758 ft 514 kts 76°
2026-04-22 13:05 7.05383 29.70184 34760 ft 514 kts 76°
2026-04-22 13:05 7.06981 29.77194 34753 ft 514 kts 76°
2026-04-22 13:06 7.08578 29.84208 34753 ft 514 kts 76°
2026-04-22 13:06 7.10172 29.91217 34751 ft 513 kts 76°
2026-04-22 13:07 7.11765 29.98220 34748 ft 513 kts 76°
2026-04-22 13:07 7.13358 30.05229 34744 ft 513 kts 76°
2026-04-22 13:08 7.14948 30.12231 34741 ft 513 kts 76°
2026-04-22 13:08 7.16538 30.19238 34742 ft 513 kts 76°
2026-04-22 13:09 7.18128 30.26249 34741 ft 513 kts 76°
2026-04-22 13:09 7.19713 30.33247 34739 ft 513 kts 76°
2026-04-22 13:10 7.21299 30.40250 34738 ft 513 kts 76°
2026-04-22 13:10 7.22885 30.47257 34734 ft 513 kts 76°
2026-04-22 13:11 7.24467 30.54258 34733 ft 513 kts 76°
2026-04-22 13:11 7.26049 30.61261 34736 ft 513 kts 76°
2026-04-22 13:12 7.27633 30.68276 34733 ft 513 kts 76°
2026-04-22 13:12 7.29214 30.75280 34730 ft 513 kts 76°
2026-04-22 13:13 7.30794 30.82287 34727 ft 513 kts 76°
2026-04-22 13:13 7.32370 30.89289 34728 ft 513 kts 76°
2026-04-22 13:14 7.33936 30.96253 34729 ft 513 kts 76°
2026-04-22 13:14 7.35510 31.03254 34725 ft 513 kts 76°
2026-04-22 13:15 7.37087 31.10269 34723 ft 513 kts 76°
2026-04-22 13:15 7.38660 31.17272 34725 ft 513 kts 76°
2026-04-22 13:16 7.40232 31.24280 34722 ft 513 kts 76°
2026-04-22 13:16 7.41807 31.31301 34723 ft 513 kts 76°
2026-04-22 13:17 7.43378 31.38310 34722 ft 513 kts 76°
2026-04-22 13:17 7.44948 31.45326 34720 ft 513 kts 76°
2026-04-22 13:18 7.46519 31.52348 34722 ft 513 kts 76°
2026-04-22 13:18 7.48087 31.59361 34722 ft 513 kts 76°
2026-04-22 13:19 7.49659 31.66383 34723 ft 513 kts 76°
2026-04-22 13:19 7.51223 31.73396 34722 ft 513 kts 76°
2026-04-22 13:20 7.52787 31.80421 34722 ft 513 kts 76°
2026-04-22 13:20 7.54348 31.87433 34724 ft 513 kts 76°
2026-04-22 13:21 7.55910 31.94448 34723 ft 513 kts 76°
2026-04-22 13:21 7.57472 32.01469 34720 ft 513 kts 76°
2026-04-22 13:22 7.59032 32.08486 34718 ft 513 kts 76°
2026-04-22 13:22 7.60591 32.15503 34720 ft 513 kts 76°
2026-04-22 13:23 7.62146 32.22514 34718 ft 513 kts 76°
2026-04-22 13:23 7.63692 32.29487 34714 ft 513 kts 76°
2026-04-22 13:24 7.65247 32.36500 34714 ft 513 kts 76°
2026-04-22 13:24 7.66799 32.43514 34714 ft 513 kts 76°
2026-04-22 13:25 7.68352 32.50532 34713 ft 513 kts 76°
2026-04-22 13:25 7.69904 32.57539 34712 ft 512 kts 76°
2026-04-22 13:26 7.71448 32.64551 34709 ft 512 kts 76°
2026-04-22 13:26 7.72990 32.71560 34710 ft 512 kts 76°
2026-04-22 13:27 7.74533 32.78573 34707 ft 512 kts 76°
2026-04-22 13:27 7.76073 32.85574 34706 ft 512 kts 76°
2026-04-22 13:28 7.77612 32.92577 34703 ft 511 kts 76°
2026-04-22 13:28 7.79150 32.99580 34706 ft 511 kts 76°
2026-04-22 13:29 7.80427 33.05396 34706 ft 511 kts 77°
2026-04-22 13:29 7.82222 33.13582 34708 ft 511 kts 77°
2026-04-22 13:30 7.83490 33.19400 34707 ft 511 kts 77°
2026-04-22 13:30 7.84995 33.26416 34707 ft 512 kts 77°
2026-04-22 13:31 7.86497 33.33426 34706 ft 512 kts 77°
2026-04-22 13:31 7.88001 33.40439 34704 ft 512 kts 77°
2026-04-22 13:32 7.89509 33.47457 34704 ft 512 kts 77°
2026-04-22 13:32 7.91015 33.54473 34705 ft 512 kts 77°
2026-04-22 13:33 7.92522 33.61501 34704 ft 512 kts 77°
2026-04-22 13:33 7.94027 33.68527 34709 ft 513 kts 77°
2026-04-22 13:34 7.95531 33.75551 34713 ft 513 kts 77°
2026-04-22 13:34 7.97035 33.82583 34710 ft 513 kts 77°
2026-04-22 13:35 7.98540 33.89626 34711 ft 513 kts 77°
2026-04-22 13:35 8.00044 33.96673 34710 ft 513 kts 77°
2026-04-22 13:36 8.01546 34.03712 34715 ft 514 kts 77°
2026-04-22 13:36 8.03048 34.10762 34718 ft 514 kts 77°
2026-04-22 13:37 8.04541 34.17770 34716 ft 514 kts 77°
2026-04-22 13:37 8.06051 34.24866 34721 ft 514 kts 77°
2026-04-22 13:38 8.07541 34.31881 34725 ft 515 kts 77°
2026-04-22 13:38 8.09815 34.42462 34730 ft 515 kts 77°
2026-04-22 13:39 8.11332 34.49521 34741 ft 515 kts 77°
2026-04-22 13:39 8.12845 34.56580 34750 ft 515 kts 77°
2026-04-22 13:40 8.14325 34.63645 34763 ft 515 kts 78°
2026-04-22 13:40 8.15992 34.70673 34778 ft 515 kts 74°
2026-04-22 13:41 8.17884 34.77641 34789 ft 515 kts 75°
2026-04-22 13:41 8.19651 34.84641 34800 ft 515 kts 76°
2026-04-22 13:42 8.21369 34.91662 34817 ft 515 kts 76°
2026-04-22 13:42 8.23071 34.98686 34825 ft 516 kts 76°
2026-04-22 13:43 8.24756 35.05728 34834 ft 516 kts 76°
2026-04-22 13:43 8.26457 35.12759 34840 ft 516 kts 76°
2026-04-22 13:44 8.28161 35.19814 34847 ft 517 kts 76°
2026-04-22 13:44 8.29858 35.26863 34853 ft 517 kts 76°
2026-04-22 13:45 8.31556 35.33923 34857 ft 517 kts 76°
2026-04-22 13:45 8.33251 35.40983 34865 ft 517 kts 76°
2026-04-22 13:46 8.34945 35.48040 34870 ft 517 kts 76°
2026-04-22 13:46 8.36638 35.55103 34873 ft 517 kts 76°
2026-04-22 13:47 8.38242 35.61798 34878 ft 516 kts 76°
2026-04-22 13:47 8.39926 35.68836 34882 ft 516 kts 76°
2026-04-22 13:48 8.41609 35.75873 34884 ft 515 kts 76°
2026-04-22 13:48 8.43290 35.82905 34884 ft 515 kts 76°
2026-04-22 13:49 8.44968 35.89932 34883 ft 515 kts 76°
2026-04-22 13:49 8.46634 35.96914 34881 ft 514 kts 76°
2026-04-22 13:50 8.48309 36.03944 34878 ft 515 kts 76°
2026-04-22 13:50 8.49981 36.10964 34875 ft 514 kts 76°
2026-04-22 13:51 8.51654 36.17994 34866 ft 515 kts 76°
2026-04-22 13:51 8.53327 36.25026 34859 ft 515 kts 76°
2026-04-22 13:52 8.54996 36.32052 34853 ft 514 kts 76°
2026-04-22 13:52 8.56665 36.39082 34841 ft 514 kts 76°
2026-04-22 13:53 8.58334 36.46115 34840 ft 515 kts 75°
2026-04-22 13:53 8.60374 36.53022 34870 ft 512 kts 68°
2026-04-22 13:54 8.63704 36.59384 34552 ft 516 kts 52°
2026-04-22 13:54 8.65708 36.61831 34216 ft 512 kts 45°
2026-04-22 13:54 8.68146 36.64087 34134 ft 436 kts 37°
2026-04-22 13:55 8.70356 36.65816 34274 ft 374 kts 35°
2026-04-22 13:55 8.72318 36.67323 33626 ft 350 kts 36°
2026-04-22 13:55 8.74206 36.68889 31802 ft 356 kts 39°
2026-04-22 13:55 8.76084 36.70667 29420 ft 374 kts 44°
2026-04-22 13:56 8.77840 36.72658 27062 ft 382 kts 51°
2026-04-22 13:56 8.79327 36.74803 25493 ft 370 kts 58°
2026-04-22 13:56 8.79884 36.75796 24988 ft 360 kts 62°